Theta_e
349 353 356 359 371 370 372 368 359 359 358 352 353 358 359 358 362 367 350 348 348 351 353 353 351 352 353 348 346 349 352 353 353 353 353 354 351 350 348 344 353 351 353 354 353 353 354 352 352
355 355 358 366 374 372 373 364 366 360 354 353 356 358 359 359 352 351 351 347 347 350 351 353 351 351 353 351 350 353 355 352 353 350 354 351 353 347 347 348 352 351 353 354 353 354 354 353 353
359 360 367 372 369 367 372 364 360 356 354 355 359 355 355 357 351 351 349 346 347 347 349 353 350 351 353 354 351 352 354 353 352 347 348 346 348 352 349 353 349 350 351 354 353 353 353 353 351
360 359 364 370 364 361 364 360 356 356 355 354 356 358 353 350 350 349 347 345 344 348 352 352 351 353 354 355 353 353 354 353 352 348 348 346 348 353 352 354 352 352 352 352 351 353 353 353 348
357 365 370 365 360 355 354 355 355 358 355 355 354 359 356 350 350 349 347 345 345 351 352 351 348 352 352 354 354 354 351 354 349 354 352 350 353 353 354 355 354 354 354 349 353 353 353 353 349
365 365 371 358 357 357 355 354 355 355 354 355 357 357 356 349 349 346 348 343 349 351 348 347 347 353 350 349 352 352 352 353 351 352 354 352 354 354 355 355 355 353 355 350 354 353 353 353 342
365 370 371 355 357 356 355 351 352 355 355 356 354 362 352 350 348 342 343 343 346 344 348 347 349 354 354 355 351 353 352 354 352 354 355 354 355 355 354 355 354 353 353 354 350 347 351 352 339
355 363 361 352 354 356 352 351 349 351 352 353 355 360 356 349 342 341 342 342 341 346 347 347 347 349 349 349 354 354 352 350 352 349 350 349 354 351 349 352 353 354 353 352 348 348 349 348 342
348 367 365 353 353 352 351 350 352 349 350 350 352 355 350 346 341 342 342 341 341 344 345 350 347 347 346 348 345 341 347 344 346 348 347 348 352 350 349 352 352 354 354 353 348 348 347 338 336
350 364 354 351 350 351 353 353 351 356 353 354 355 353 350 344 338 339 342 341 344 341 343 349 346 346 347 350 346 349 345 352 351 351 351 349 351 347 348 351 352 352 352 351 343 347 351 345 342
355 355 350 352 352 350 353 354 355 360 358 354 356 354 350 341 337 339 340 340 343 342 342 347 347 347 348 349 349 352 350 350 349 350 352 350 351 350 346 347 348 350 346 348 340 342 348 337 339
356 348 350 351 352 351 350 348 355 356 354 353 352 351 350 343 338 335 335 340 344 343 340 345 348 347 349 347 348 350 348 349 347 349 349 349 350 351 350 347 350 350 346 340 349 350 346 344 339
354 351 348 349 350 350 350 351 351 351 349 352 350 351 350 343 339 340 339 341 342 340 341 341 343 349 349 347 346 348 348 348 347 349 349 344 347 347 346 350 345 344 343 345 349 349 349 349 348
346 347 350 350 351 352 353 355 356 350 351 353 351 350 349 345 343 338 340 339 337 339 337 341 342 351 351 350 349 349 347 347 348 349 349 353 351 350 348 345 338 342 337 339 349 348 349 347 343
345 347 347 350 351 353 354 358 357 351 351 352 351 350 349 348 343 338 341 340 342 344 339 341 343 348 349 350 348 348 349 346 348 347 350 352 352 349 347 343 338 345 342 342 349 348 350 347 349
348 342 345 346 351 355 359 365 356 351 352 353 351 350 349 348 344 339 339 336 341 343 346 342 341 346 346 350 350 351 349 350 349 350 350 352 351 347 346 345 344 344 343 350 350 346 349 349 349
343 338 343 347 350 353 358 362 357 351 351 353 352 351 349 348 346 344 338 334 339 340 344 342 346 344 348 346 338 347 350 351 353 353 352 353 352 351 347 346 345 343 344 347 349 348 349 348 349
334 334 336 347 346 349 355 360 357 354 352 353 353 351 350 348 346 341 337 339 342 338 337 333 345 347 345 346 351 353 350 351 352 353 352 353 352 352 352 347 345 345 345 345 348 349 343 348 347
333 332 334 335 337 347 353 359 357 356 354 355 354 353 352 352 348 345 339 340 346 341 333 331 339 345 347 343 351 350 352 352 352 353 352 354 353 353 352 348 346 347 346 346 348 350 342 348 348
332 332 337 339 335 340 349 358 357 355 356 354 354 354 354 353 352 349 347 344 345 343 341 340 342 347 347 351 350 350 348 351 351 351 350 355 355 354 354 353 351 350 348 348 347 349 351 349 349
332 330 330 331 341 341 351 358 359 355 355 354 353 353 352 352 352 351 349 349 346 341 341 342 346 344 349 348 349 350 351 353 354 352 352 353 355 355 353 352 352 350 350 350 348 348 349 350 349
329 330 330 329 331 334 347 365 350 357 356 355 353 352 351 350 350 350 351 349 346 342 340 344 345 347 350 352 354 354 355 354 352 351 351 351 352 356 356 356 354 353 349 350 348 348 350 349 349
329 329 329 331 333 334 345 355 360 354 358 355 354 352 351 350 349 348 348 347 344 342 342 346 344 345 348 352 352 355 354 355 353 353 352 352 354 353 354 356 355 354 353 351 345 351 348 350 351
330 329 330 333 333 335 349 352 356 355 358 356 353 352 351 350 350 348 346 346 345 343 342 345 348 350 349 353 354 354 356 354 356 355 354 355 358 358 357 355 355 355 354 353 351 350 348 350 351
330 330 332 336 337 340 344 345 348 345 340 353 351 352 351 350 351 351 350 347 346 344 344 344 346 350 352 352 354 358 352 358 356 357 356 357 357 355 353 353 355 357 355 353 349 349 348 352 351
332 332 336 340 338 340 345 347 351 345 343 349 349 349 350 350 351 351 352 351 349 347 346 346 347 351 354 355 354 353 359 356 358 358 358 356 355 355 357 354 351 355 357 353 349 349 348 349 351
333 334 335 333 334 337 346 348 348 346 346 349 348 349 348 348 349 350 349 349 351 351 350 350 350 353 355 355 356 357 358 361 359 357 356 357 354 353 355 354 352 356 357 355 349 351 350 349 349
331 333 332 333 335 338 342 352 354 351 350 347 346 346 346 345 345 345 346 349 350 351 352 351 351 356 356 355 356 357 359 359 360 357 358 356 354 356 355 358 355 357 357 356 357 353 353 352 351
335 334 333 334 334 339 343 352 345 350 348 349 346 345 346 346 344 346 351 353 352 349 351 351 353 357 356 353 353 355 356 356 358 359 357 354 353 349 351 359 355 357 358 358 359 355 355 351 348
332 330 331 335 336 334 339 353 340 346 346 350 350 345 346 347 348 352 354 352 352 352 351 351 350 350 350 350 352 351 353 353 352 352 353 355 357 357 357 356 360 359 358 360 359 358 355 353 347
Wind_Speed
8 7 8 4 2 1 4 6 4 12 12 13 13 18 18 17 7 9 27 23 27 22 18 17 16 15 14 14 12 10 9 8 7 7 7 7 8 8 9 11 13 12 14 16 15 16 17 17 17
8 8 4 4 3 3 5 5 13 3 16 15 20 17 20 20 16 19 14 29 25 22 20 16 16 15 14 12 11 9 8 7 6 5 6 7 8 9 9 12 13 15 16 16 16 16 16 16 16
8 6 3 3 3 2 3 9 13 10 14 11 10 14 7 6 13 19 22 29 26 24 20 17 15 14 13 12 11 9 9 7 6 6 6 7 10 12 12 13 14 16 18 16 15 15 15 14 15
4 3 4 2 6 13 10 10 13 12 9 3 16 12 8 10 7 24 26 28 25 26 21 18 15 14 12 11 10 9 9 8 7 8 7 10 15 14 14 14 15 17 17 16 17 16 14 14 14
8 2 3 4 9 16 11 12 11 12 12 9 15 11 10 5 15 34 26 27 26 27 23 18 16 15 12 10 11 10 9 9 10 11 14 17 17 16 15 15 16 16 16 16 16 15 15 13 14
3 2 3 6 12 15 12 10 9 12 15 15 17 13 5 7 17 21 26 26 31 26 23 18 16 14 12 11 10 10 12 10 11 12 14 16 16 16 16 16 16 16 15 16 15 15 14 14 14
10 7 4 4 14 13 15 5 10 13 9 14 17 9 9 14 10 21 17 23 31 26 22 18 16 14 12 13 10 10 11 10 10 11 12 13 13 13 14 15 16 16 15 13 12 13 14 13 14
4 3 8 7 6 13 14 11 12 12 13 25 22 8 13 20 18 13 20 20 11 30 22 20 17 15 13 11 9 9 11 10 8 10 11 11 12 10 11 12 14 15 15 13 11 11 13 13 11
11 4 7 4 3 13 14 7 12 9 12 8 8 17 32 33 26 22 18 13 8 27 24 21 16 15 16 13 9 9 9 9 8 7 9 11 11 11 11 10 11 12 12 10 10 10 12 13 11
4 2 3 12 1 8 16 3 10 7 6 18 19 28 36 35 32 25 19 9 6 20 23 22 21 16 15 15 10 9 8 8 8 6 5 6 8 13 6 11 10 11 10 9 7 7 9 9 7
14 2 12 13 9 7 16 5 18 18 11 12 22 26 26 30 28 27 23 16 11 10 14 16 18 16 13 11 10 9 7 12 8 3 5 6 9 10 18 13 12 8 6 3 5 7 9 24 11
4 7 8 12 4 2 4 10 14 9 10 20 22 25 25 23 22 29 26 22 17 14 12 14 16 15 8 6 9 9 5 6 5 6 4 2 3 7 13 11 13 9 5 11 13 9 13 13 25
15 10 8 6 5 9 3 14 11 10 6 23 18 27 24 20 24 27 28 20 20 18 16 14 14 12 14 9 5 10 5 5 6 10 5 4 5 1 8 8 7 3 11 8 9 7 3 9 18
5 3 8 10 7 5 12 7 7 10 12 22 20 22 21 20 24 26 27 24 26 22 19 20 19 15 10 8 5 3 5 6 8 7 6 9 4 8 7 3 3 5 7 9 6 6 3 2 8
3 10 14 9 6 7 11 8 12 12 12 18 18 16 20 13 21 23 24 26 22 17 17 23 16 11 11 9 6 6 4 5 3 3 3 6 8 7 8 5 4 6 10 7 3 5 4 7 6
14 12 7 8 8 19 11 6 10 11 12 18 16 17 16 21 21 24 22 22 16 16 8 13 14 17 16 14 13 9 9 4 5 4 8 7 6 7 9 9 10 12 11 10 9 3 7 8 10
12 2 13 10 9 21 10 13 11 9 10 17 17 15 15 17 21 26 25 28 27 21 17 12 8 20 19 14 15 11 7 7 2 6 7 9 10 10 10 13 13 12 13 15 10 11 7 9 5
5 4 12 12 8 12 12 15 12 12 11 11 13 17 13 15 15 21 21 17 26 27 25 23 14 10 13 13 13 13 10 7 9 10 10 10 6 11 12 14 16 9 11 13 11 13 13 10 8
7 7 12 11 5 6 11 14 11 12 12 13 13 14 15 14 16 20 24 23 18 26 30 32 19 17 14 19 19 13 12 12 12 16 11 3 7 10 12 16 16 10 10 15 16 12 13 7 9
8 9 14 11 6 3 9 16 11 9 11 12 14 14 16 17 19 25 26 28 26 26 26 22 21 16 19 17 13 12 14 11 13 8 9 11 8 10 12 14 15 14 17 17 16 15 12 13 12
13 10 9 2 13 12 15 13 12 9 8 12 14 16 17 18 20 19 24 28 29 29 28 28 24 21 19 18 17 14 12 13 8 12 9 10 12 11 12 15 15 16 17 19 15 16 17 15 12
12 6 7 10 12 11 19 7 3 13 10 13 15 15 16 16 16 18 23 29 29 31 31 29 26 25 21 19 16 17 15 14 13 12 15 16 18 15 15 16 15 16 16 16 15 10 16 16 15
12 9 9 12 12 18 25 11 5 4 10 14 16 17 17 17 18 19 18 24 26 30 31 31 31 29 23 24 22 15 17 14 17 21 18 17 17 19 18 18 17 16 16 14 10 16 17 18 14
11 11 15 17 13 12 21 14 9 8 19 18 18 19 19 20 18 20 26 27 27 30 33 28 31 30 28 24 24 23 17 19 16 17 12 20 16 16 13 19 20 17 15 14 14 16 17 21 22
12 15 9 6 3 10 18 10 8 20 14 19 22 20 18 21 19 18 21 23 26 31 32 31 32 32 30 29 24 23 27 18 20 18 17 15 17 16 11 23 19 19 17 15 16 18 16 19 22
9 10 4 2 9 8 13 7 5 11 15 26 23 23 20 18 19 18 17 23 28 30 30 31 30 32 32 30 28 27 23 25 22 20 18 20 19 11 5 14 17 16 15 14 15 16 19 18 17
13 8 12 14 19 9 9 11 16 12 32 36 25 25 21 17 19 20 19 23 24 31 31 30 28 33 32 30 28 26 25 22 21 23 23 26 23 17 12 11 22 17 15 13 16 17 18 18 18
12 12 12 7 4 9 8 6 10 22 13 13 14 15 13 10 9 8 7 21 23 23 29 29 30 31 31 27 25 24 24 25 25 26 24 21 19 12 11 14 18 17 16 15 17 18 18 18 21
3 9 10 11 10 4 4 7 9 9 20 17 6 13 12 12 10 7 8 11 9 5 19 24 21 21 24 24 22 23 24 26 26 26 25 26 26 28 23 14 19 19 18 20 18 19 19 20 24
10 10 13 10 7 10 6 4 5 16 13 15 21 12 13 11 12 10 9 10 10 8 8 16 20 18 17 17 18 19 20 23 22 28 26 24 24 21 20 20 20 21 21 22 24 24 23 23 24
Wind_Direction
195 212 225 251 259 335 12 72 142 99 85 98 64 85 75 50 70 121 148 141 132 131 126 118 123 121 120 121 115 110 110 108 109 114 120 119 115 111 101 104 109 112 119 121 117 113 113 111 113
217 229 231 259 277 116 86 134 90 128 98 81 80 79 67 58 91 121 144 133 135 133 130 123 122 120 121 122 115 111 108 101 101 110 123 131 128 126 115 113 116 114 120 122 118 113 110 111 116
255 279 274 253 304 120 96 112 107 83 108 119 103 85 73 89 112 132 148 134 135 138 131 128 129 126 123 120 116 111 101 95 92 97 118 141 134 127 120 116 112 114 119 115 119 117 112 114 118
269 232 244 232 103 112 150 136 116 118 105 81 99 80 77 114 125 132 146 143 142 136 128 130 129 125 123 123 114 99 95 90 85 81 79 140 136 132 126 118 112 115 119 119 120 120 118 118 123
196 261 253 151 121 94 99 120 150 149 135 133 117 102 105 108 143 143 152 154 135 122 127 127 129 126 125 122 109 100 97 91 96 87 86 113 128 128 129 123 119 121 122 127 124 122 124 126 130
236 202 222 124 95 105 118 146 169 140 133 150 110 115 112 170 150 156 165 140 131 130 129 128 132 126 126 125 111 94 91 93 101 102 105 117 127 131 132 130 127 125 125 132 132 128 131 131 134
229 317 287 336 130 113 117 193 103 123 139 137 140 106 129 168 178 162 139 146 132 134 130 138 138 134 125 111 110 105 99 98 111 116 120 126 130 133 137 134 129 128 128 133 131 140 139 143 138
37 250 360 61 59 103 136 139 94 108 116 137 141 142 157 164 161 139 140 147 126 136 139 145 145 140 138 123 123 117 115 111 121 131 136 134 129 131 132 127 130 133 132 135 134 141 152 147 138
11 13 8 34 299 115 127 153 120 112 126 135 149 150 149 158 160 145 147 170 152 149 149 148 154 162 151 147 141 136 127 124 125 137 153 149 146 135 133 143 143 136 136 140 141 138 150 147 142
147 261 79 65 341 80 102 337 112 34 50 87 88 109 141 157 156 162 168 160 96 154 159 158 156 164 157 157 141 159 159 152 140 170 150 165 162 128 182 162 156 149 148 153 157 157 156 141 169
170 297 62 70 29 10 105 258 95 126 256 141 126 134 145 158 162 162 155 148 151 119 135 142 143 155 141 171 153 160 185 183 150 157 158 123 171 156 165 175 163 137 145 188 182 178 123 120 191
3 78 61 79 79 104 83 115 125 124 51 127 139 143 149 166 162 165 171 175 147 157 160 150 168 158 166 164 155 181 153 187 159 194 220 174 159 151 166 165 152 140 132 206 215 182 166 184 149
230 114 130 114 92 74 109 59 63 54 73 122 135 140 152 164 171 165 170 161 171 181 174 184 165 159 153 166 165 159 121 253 186 198 198 151 212 49 167 177 144 143 170 245 259 196 146 170 190
99 93 122 142 117 87 97 101 127 77 75 138 137 145 156 166 181 168 158 170 179 183 179 181 194 161 146 197 182 186 195 254 226 205 178 150 206 152 165 170 279 260 255 283 11 145 107 201 173
175 163 139 143 160 117 93 105 88 103 123 111 123 140 147 155 187 162 154 178 163 183 198 157 163 174 179 192 191 247 250 226 159 196 170 162 165 174 180 199 250 261 276 287 12 158 189 196 204
293 157 154 125 153 108 355 114 119 127 132 124 134 146 148 167 193 156 165 180 175 179 176 146 180 183 188 201 202 206 235 271 200 222 223 206 214 189 197 197 217 235 256 268 303 201 223 228 213
248 96 120 137 204 142 148 130 138 126 128 133 147 157 161 177 175 166 181 183 174 188 181 181 225 184 184 192 209 208 238 240 242 213 212 210 177 183 190 192 194 221 242 249 253 255 235 222 251
350 85 91 125 149 206 114 117 140 134 132 144 146 155 173 181 181 163 173 162 163 185 198 191 208 195 197 209 198 220 246 229 215 220 224 217 199 183 190 196 201 234 242 257 264 263 221 194 229
301 286 116 120 161 206 134 132 147 148 144 151 163 173 174 179 188 173 182 181 173 191 199 204 209 203 202 211 210 215 230 220 236 234 223 223 169 180 194 204 208 217 203 218 241 242 229 247 217
281 277 118 128 156 198 136 133 143 166 159 168 169 178 180 174 190 180 183 193 192 199 205 204 215 209 210 225 207 211 221 243 238 224 223 191 203 183 198 204 214 209 200 218 227 234 241 230 206
281 353 36 351 167 195 113 115 143 168 192 172 178 184 186 177 175 181 183 191 191 199 196 202 197 197 214 207 210 213 230 238 262 227 215 216 213 228 204 204 202 194 208 211 212 223 236 236 235
300 41 306 254 240 229 168 153 256 160 208 188 186 188 180 174 169 177 181 190 190 194 197 199 192 194 206 213 223 210 205 215 237 235 233 220 213 211 217 206 202 207 204 205 211 209 238 229 231
293 319 268 259 262 264 194 117 334 157 210 217 208 186 180 182 178 175 186 185 191 189 194 194 196 201 204 210 223 229 233 224 229 237 236 204 207 208 212 217 205 210 219 218 213 196 200 229 232
258 280 260 252 235 243 80 95 224 227 202 208 211 189 186 177 185 177 184 189 193 188 195 198 190 197 202 208 213 225 234 235 254 256 267 221 233 209 215 226 211 204 212 212 216 213 205 207 214
224 237 261 257 336 311 136 132 184 223 219 213 194 191 184 176 183 191 183 189 191 195 196 198 196 196 200 204 210 222 230 231 244 259 252 261 243 235 263 237 224 206 210 209 213 213 221 225 219
302 311 201 242 294 232 82 145 173 138 296 233 195 180 175 181 176 194 195 190 190 197 201 201 201 195 195 199 207 218 228 232 238 249 258 266 269 270 262 162 267 219 211 220 223 225 228 229 228
304 297 334 290 222 218 111 91 2 337 212 244 180 169 156 177 180 184 192 202 199 194 198 198 202 189 192 198 204 211 222 224 233 239 248 250 262 263 231 223 198 208 210 221 224 227 232 227 232
261 313 301 299 340 333 104 80 143 255 309 126 143 105 109 136 143 158 174 193 192 198 190 191 193 182 187 195 203 213 218 226 232 243 251 251 253 272 254 203 199 193 205 214 220 226 227 231 226
271 275 303 337 300 221 196 94 161 105 266 329 24 127 128 122 112 94 71 52 57 175 176 176 170 172 182 198 209 212 219 224 229 233 241 248 254 255 249 237 208 207 202 207 222 217 220 234 231
285 271 284 279 326 323 343 126 244 234 58 77 281 260 139 118 106 108 97 101 104 82 100 159 172 190 198 216 217 231 230 229 232 233 236 239 241 245 246 239 228 212 216 213 217 220 218 227 228